User: anonymous   Login
Location: North Smoke Tower Site
(30.5430°N, 82.3390°W)
Time: 16:31:47
(UTC-04:00)
Language:

Cosmos 1980 Rocket - Orbit

View from above orbital plane
View from above orbital plane
View from above satellite
View from above satellite

Ground track
Ground track

The orbit data is extracted from the following two-line orbital elements,

1 19650U 88102B   14297.17044812 -.00000032  00000-0  82936-5 0  4141
2 19650 071.0003 248.3514 0015490 221.7869 228.9916 14.15680619339132
Epoch (UTC): 24 October 2014 04:05:26
Eccentricity: 0.0015490
inclination: 71.0003°
perigee height: 829 km
apogee height: 851 km
right ascension of ascending node: 248.3514°
argument of perigee: 221.7869°
revolutions per day: 14.15680619
mean anomaly at epoch: 228.9916°
orbit number at epoch: 33913

The dashed part of the orbit path shows where the satellite is in the earth's shadow,  

DLR